星链-36375(STARLINK-36375)
导读
STARLINK-36375是美国太空探索技术公司Starlink星链互联网卫星星座的一员,于2026年2月22日发射入轨。星链项目旨在为全球提供高速低延迟宽带互联网服务,该卫星入轨后将助力提升星座网络覆盖能力与服务性能,进一步推进星链星座的部署进程,拓展全球卫星互联网的服务范围。
Basic Information
目录编号:
67920
目录名称:
STARLINK-36375
国际标识:
2026-036S
轨道中心:
EARTH
卫星名称:
星链-36375
卫星全名:
星链-36375(STARLINK-36375)
卫星状态:
在轨 (已飞行195 天)
发射日期:
2026-02-22 UTC
国别 :
美国
(US)
星等 :
--
Orbit Information
| 数据来源 | 国际轨道数据 |
| 星历时间: | 2026-09-04T19:48:08+0800 16小时前 查看轨道信息 |
| 半长轴: | 6861.157km |
| 偏心率: | 0.000159 |
| 轨道倾角: | 43.002° |
| 近地点辐角 | 276.116° |
| 升交点赤经 | 315.824° |
| 平近点角 | 83.951° |
| 近地点: | 481.929km |
| 远地点: | 484.111km |
| 周期: | 94.266分钟 |
| 每日圈数: | 15.275898 |
Detailed Information
固有亮度:
5
最大亮度:
2.5
卫星平台:
Starlink V1.0
覆盖范围:
全球
运营商:
太空探索技术公司
运营商所在国:
美国
制造商(研发单位):
太空探索技术公司
制造商所在国:
美国
使用方式:
暂无
Satellite Introduction
Starlink 计划是 SpaceX 推出的全球卫星互联网项目,通过发射低轨道卫星,为全球尤其是偏远地区提供高速、低延迟的互联网服务。自 2019 年起,Starlink 已部署数千颗卫星,旨在缩小全球数字鸿沟,推动互联网普及。该项目还为军事、航空等行业提供通信支持,带来广泛经济效益。
2D Orbit Map
3D Orbit Map
Orbit Altitude Analysis Chart
Orbit Inclination Analysis Chart
Orbit Comprehensive Analysis Chart
View Comprehensive ChartConjunction Data List
| Event ID | Objects | TCA | Miss Dist (km) | Collision Risk Probability | Collision Risk Index (CRI) | Action |
|---|---|---|---|---|---|---|
| CDM_260907-111906-340306-792021 |
STARLINK-33676
(63403)
STARLINK-36375
(67920) | 2026-09-07T 11:19:14+0000 |
1.222 km
极远距离 | 1.006855E-5 中风险 | 0.55 | |
| CDM_260906-233306-340306-792021 |
STARLINK-33676
(63403)
STARLINK-36375
(67920) | 2026-09-06T 23:33:08+0000 |
1.431 km
极远距离 | 5.887521E-6 低风险 | 0.5 | |
| CDM_260907-010706-340306-792021 |
STARLINK-33676
(63403)
STARLINK-36375
(67920) | 2026-09-07T 01:07:16+0000 |
1.622 km
极远距离 | 3.949311E-6 低风险 | 0.47 | |
| CDM_260907-125905-614106-792021 |
STARLINK-5377
(56141)
STARLINK-36375
(67920) | 2026-09-07T 12:59:14+0000 |
2.114 km
极远距离 | 1.692046E-6 低风险 | 0.4 | |
| CDM_260907-125306-340306-792021 |
STARLINK-33676
(63403)
STARLINK-36375
(67920) | 2026-09-07T 12:53:23+0000 |
2.517 km
极远距离 | 1.355001E-6 低风险 | 0.38 | |
| CDM_260905-034106-394206-792021 |
STARLINK-34014
(63942)
STARLINK-36375
(67920) | 2026-09-05T 03:41:48+0000 |
2.759 km
极远距离 | 1.302816E-6 低风险 | 0.37 |

